EW3585 Weather Reports


time (UTC)temp
C
wind
direction
speed
KPH
gust
KPH
rain 1hr
cm
rain 24hr
cm
rain mn
cm
humidity
%
barometer
mb
20260509011627 16 205 0.0 3.2 0.00 0.00 0.00 86 1016.1
20260509011043 16 205 0.0 1.6 0.00 0.00 0.00 87 1016.2
20260509010526 17 205 0.0 1.6 0.00 0.00 0.00 84 1016.2
20260509010148 17 205 0.0 1.6 0.00 0.00 0.00 84 1016.3
20260509005536 17 205 0.0 1.6 0.00 0.00 0.00 84 1016.0
20260509005017 17 205 0.0 3.2 0.00 0.00 0.00 84 1016.1
20260509004611 17 205 0.0 3.2 0.00 0.00 0.00 84 1016.1
20260509004033 17 205 0.0 3.2 0.00 0.00 0.00 84 1015.9
20260509003543 17 205 0.0 0.0 0.00 0.00 0.00 83 1016.0
20260509003148 17 205 0.0 0.0 0.00 0.00 0.00 80 1016.1
20260509002534 17 205 0.0 0.0 0.00 0.00 0.00 80 1016.0
20260509002032 17 205 0.0 0.0 0.00 0.00 0.00 79 1016.1
20260509001630 18 205 0.0 3.2 0.00 0.00 0.00 79 1016.1
20260509001021 18 205 0.0 3.2 0.00 0.00 0.00 76 1016.2
20260509000536 18 205 0.0 3.2 0.00 0.00 0.00 76 1016.0
20260509000114 18 205 0.0 1.6 0.00 0.00 0.00 75 1016.1
20260508235533 18 205 0.0 1.6 0.00 0.00 0.00 74 1016.0
20260508235035 18 205 0.0 1.6 0.00 0.00 0.00 74 1016.0
20260508234648 18 205 0.0 1.6 0.00 0.00 0.00 73 1015.9
20260508234042 18 205 0.0 4.8 0.00 0.00 0.00 73 1016.1
20260508233517 18 205 1.6 4.8 0.00 0.00 0.00 73 1015.9
20260508233135 18 203 1.6 4.8 0.00 0.00 0.00 72 1016.0
20260508232514 18 203 0.0 3.2 0.00 0.00 0.00 73 1016.0
20260508232042 18 203 0.0 4.8 0.00 0.00 0.00 73 1016.1
20260508231642 18 203 0.0 4.8 0.00 0.00 0.00 72 1016.2
20260508231012 19 203 0.0 6.4 0.00 0.00 0.00 72 1016.2
20260508230527 19 203 1.6 6.4 0.00 0.00 0.00 72 1016.0
20260508230140 19 194 1.6 4.8 0.00 0.00 0.00 72 1016.3
20260508225534 19 211 0.0 6.4 0.00 0.00 0.00 72 1016.1
20260508225037 19 211 1.6 6.4 0.00 0.00 0.00 71 1016.1
20260508224624 19 208 1.6 6.4 0.00 0.00 0.00 72 1016.1
20260508224026 19 209 1.6 8.0 0.00 0.00 0.00 71 1016.0
20260508223538 19 209 3.2 8.0 0.00 0.00 0.00 70 1016.1
20260508223054 19 202 3.2 6.4 0.00 0.00 0.00 70 1016.0
20260508222531 19 191 3.2 6.4 0.00 0.00 0.00 69 1016.3
20260508222027 20 203 3.2 6.4 0.00 0.00 0.00 69 1016.0
20260508221628 20 193 3.2 9.7 0.00 0.00 0.00 68 1016.0
20260508221018 20 183 3.2 9.7 0.00 0.00 0.00 69 1015.9
20260508220524 20 202 3.2 8.0 0.00 0.00 0.00 68 1016.0
20260508220139 20 202 3.2 8.0 0.00 0.00 0.00 66 1016.0
20260508215521 20 201 3.2 8.0 0.00 0.00 0.00 66 1015.9
20260508215031 20 177 3.2 8.0 0.00 0.00 0.00 66 1016.1
20260508214634 20 251 3.2 8.0 0.00 0.00 0.00 65 1016.1
20260508214032 20 209 3.2 6.4 0.00 0.00 0.00 66 1016.3
20260508213514 20 206 3.2 8.0 0.00 0.00 0.00 66 1016.0
20260508213103 20 209 3.2 8.0 0.00 0.00 0.00 64 1016.0
20260508212529 20 194 3.2 8.0 0.00 0.00 0.00 64 1016.0
20260508212023 20 205 3.2 6.4 0.00 0.00 0.00 64 1016.0
20260508211613 20 200 3.2 6.4 0.00 0.00 0.00 63 1016.0
20260508211020 20 234 3.2 6.4 0.00 0.00 0.00 64 1016.1
20260508210542 20 235 3.2 11.3 0.00 0.00 0.00 64 1016.3
20260508210148 20 220 3.2 11.3 0.00 0.00 0.00 63 1016.4
20260508205533 20 180 4.8 11.3 0.00 0.00 0.00 64 1016.1
20260508205042 20 202 3.2 8.0 0.00 0.00 0.00 64 1016.3
20260508204628 20 211 3.2 6.4 0.00 0.00 0.00 62 1016.1
20260508204029 20 211 1.6 6.4 0.00 0.00 0.00 63 1016.2
20260508203538 20 225 3.2 6.4 0.00 0.00 0.00 61 1016.1
20260508203131 20 258 3.2 8.0 0.00 0.00 0.00 62 1016.1
20260508202542 20 197 3.2 8.0 0.00 0.00 0.00 63 1016.2
20260508202027 20 182 3.2 11.3 0.00 0.00 0.00 62 1016.4
20260508201623 20 213 4.8 11.3 0.00 0.00 0.00 61 1016.6
20260508201033 20 194 4.8 11.3 0.00 0.00 0.00 60 1016.5
20260508200517 21 281 3.2 9.7 0.00 0.00 0.00 60 1016.6
20260508200139 21 189 4.8 9.7 0.00 0.00 0.00 60 1016.7
20260508195522 21 152 3.2 9.7 0.00 0.00 0.00 62 1016.6
20260508195026 21 216 1.6 9.7 0.00 0.00 0.00 63 1016.6
20260508194654 21 195 1.6 6.4 0.00 0.00 0.00 60 1016.7
20260508194020 20 205 3.2 11.3 0.00 0.00 0.00 61 1017.0
20260508193516 20 201 4.8 11.3 0.00 0.00 0.00 60 1017.2
20260508193137 21 174 4.8 11.3 0.00 0.00 0.00 58 1017.2
20260508192547 21 168 3.2 8.0 0.00 0.00 0.00 60 1017.4
20260508192043 21 196 1.6 6.4 0.00 0.00 0.00 58 1017.4
20260508191632 21 314 3.2 8.0 0.00 0.00 0.00 58 1017.4
20260508191037 21 205 3.2 8.0 0.00 0.00 0.00 58 1017.5
20260508190545 21 194 0.0 8.0 0.00 0.00 0.00 58 1017.6
20260508190159 21 194 3.2 8.0 0.00 0.00 0.00 56 1017.7
20260508185520 21 194 3.2 8.0 0.00 0.00 0.00 56 1017.6
20260508185027 21 193 4.8 9.7 0.00 0.00 0.00 56 1017.6
20260508184652 21 162 3.2 12.9 0.00 0.00 0.00 58 1017.6
20260508184041 21 122 1.6 16.1 0.00 0.00 0.00 57 1017.7
20260508183521 21 201 4.8 16.1 0.00 0.00 0.00 56 1017.9
20260508183153 20 169 6.4 16.1 0.00 0.00 0.00 60 1018.1
20260508182527 20 296 4.8 16.1 0.00 0.00 0.00 59 1018.2
20260508182025 20 327 3.2 9.7 0.00 0.00 0.00 57 1018.0
20260508181634 20 86 3.2 12.9 0.00 0.00 0.00 57 1018.2
20260508181039 20 207 6.4 14.5 0.00 0.00 0.00 57 1018.2
20260508180547 20 280 3.2 9.7 0.00 0.00 0.00 58 1018.2
20260508180153 20 151 1.6 8.0 0.00 0.00 0.00 60 1018.5
20260508175525 20 271 3.2 8.0 0.00 0.00 0.00 60 1018.4
20260508175031 20 236 1.6 11.3 0.00 0.00 0.00 59 1018.6
20260508174657 20 236 4.8 12.9 0.00 0.00 0.00 62 1018.6
20260508174022 20 236 4.8 12.9 0.00 0.00 0.00 62 1018.6
20260508173522 20 218 3.2 11.3 0.00 0.00 0.00 61 1018.9
20260508173158 20 258 3.2 11.3 0.00 0.00 0.00 64 1018.9
20260508172526 20 229 1.6 14.5 0.00 0.00 0.00 61 1019.0
20260508172021 20 191 4.8 12.9 0.00 0.00 0.00 65 1019.1
20260508171653 19 188 3.2 8.0 0.00 0.00 0.00 62 1019.1
20260508171051 19 174 1.6 8.0 0.00 0.00 0.00 61 1019.1
20260508170543 19 213 3.2 11.3 0.00 0.00 0.00 64 1019.2
20260508170210 19 271 4.8 11.3 0.00 0.00 0.00 61 1019.2
20260508165541 19 213 4.8 16.1 0.00 0.00 0.00 61 1019.4
20260508165020 19 252 8.0 16.1 0.00 0.00 0.00 62 1019.4
20260508164610 19 263 4.8 14.5 0.00 0.00 0.00 63 1019.6
20260508164034 19 213 4.8 14.5 0.00 0.00 0.00 63 1019.6
20260508163536 19 177 4.8 9.7 0.00 0.00 0.00 63 1019.6
20260508163131 19 185 3.2 9.7 0.00 0.00 0.00 60 1019.6
20260508162521 19 174 3.2 12.9 0.00 0.00 0.00 63 1019.6
20260508162038 19 173 4.8 12.9 0.00 0.00 0.00 64 1019.7
20260508161637 18 157 4.8 12.9 0.00 0.00 0.00 64 1019.8
20260508161024 18 182 6.4 12.9 0.00 0.00 0.00 64 1019.9
20260508160530 18 173 4.8 16.1 0.00 0.00 0.00 62 1019.8
20260508160132 18 135 6.4 16.1 0.00 0.00 0.00 61 1019.8
20260508155542 18 127 4.8 16.1 0.00 0.00 0.00 64 1019.8
20260508155044 18 149 4.8 16.1 0.00 0.00 0.00 64 1019.8
20260508154642 18 182 3.2 11.3 0.00 0.00 0.00 66 1020.0
20260508154027 18 152 4.8 12.9 0.00 0.00 0.00 66 1020.1
20260508153528 18 201 6.4 12.9 0.00 0.00 0.00 67 1020.2
20260508153130 18 198 4.8 12.9 0.00 0.00 0.00 66 1020.3
20260508152530 18 233 1.6 6.4 0.00 0.00 0.00 68 1020.3
20260508152027 17 233 1.6 11.3 0.00 0.00 0.00 71 1020.3
20260508151657 17 220 3.2 11.3 0.00 0.00 0.00 68 1020.3
20260508151039 17 190 4.8 9.7 0.00 0.00 0.00 69 1020.3
20260508150524 17 200 4.8 9.7 0.00 0.00 0.00 71 1020.4
20260508150221 17 191 3.2 8.0 0.00 0.00 0.00 72 1020.4
20260508145528 17 211 3.2 9.7 0.00 0.00 0.00 72 1020.4
20260508145033 17 190 4.8 11.3 0.00 0.00 0.00 72 1020.3
20260508144657 17 192 4.8 11.3 0.00 0.00 0.00 73 1020.2
20260508144029 16 190 3.2 9.7 0.00 0.00 0.00 73 1020.3
20260508143543 16 216 4.8 9.7 0.00 0.00 0.00 74 1020.2
20260508143201 17 206 4.8 9.7 0.00 0.00 0.00 74 1020.2
20260508142532 17 215 1.6 8.0 0.00 0.00 0.00 73 1020.1
20260508142020 17 216 3.2 8.0 0.00 0.00 0.00 72 1020.3
20260508141635 16 123 1.6 9.7 0.00 0.00 0.00 74 1020.3
20260508141019 16 179 1.6 9.7 0.00 0.00 0.00 74 1020.2
20260508140518 16 153 3.2 9.7 0.00 0.00 0.00 75 1020.4
20260508140151 16 75 3.2 9.7 0.00 0.00 0.00 74 1020.5
20260508135532 16 113 3.2 9.7 0.00 0.10 0.00 75 1020.7
20260508135037 16 62 1.6 6.4 0.00 0.10 0.00 74 1020.6
20260508134636 16 39 1.6 6.4 0.00 0.10 0.00 74 1020.6
20260508134042 16 126 0.0 3.2 0.00 0.10 0.00 75 1020.5
20260508133527 15 126 0.0 6.4 0.00 0.10 0.00 77 1020.5
20260508133155 15 107 1.6 6.4 0.00 0.10 0.00 79 1020.5
20260508132532 15 105 1.6 6.4 0.00 0.10 0.00 80 1020.6
20260508132043 15 127 3.2 6.4 0.00 0.10 0.00 79 1020.6
20260508131637 15 94 1.6 6.4 0.00 0.10 0.00 82 1020.7
20260508131018 14 153 0.0 4.8 0.00 0.10 0.00 85 1020.6
20260508130521 14 134 1.6 4.8 0.00 0.10 0.00 86 1020.5
20260508130158 14 134 0.0 4.8 0.00 0.10 0.00 85 1020.4
20260508125527 13 134 1.6 4.8 0.00 0.36 0.00 86 1020.3
20260508125030 13 134 1.6 4.8 0.00 0.36 0.00 88 1020.2
20260508124638 13 43 0.0 3.2 0.00 0.36 0.00 93 1020.2
20260508124050 13 5 0.0 3.2 0.00 0.36 0.00 93 1020.2
20260508123520 13 5 0.0 3.2 0.00 0.36 0.00 94 1019.9
20260508123137 13 5 0.0 3.2 0.00 0.36 0.00 95 1020.0
20260508122518 13 5 0.0 3.2 0.00 0.36 0.00 96 1019.7
20260508122018 12 17 0.0 0.0 0.00 0.36 0.00 97 1019.8
20260508121648 12 17 0.0 0.0 0.00 0.36 0.00 98 1019.8
20260508121037 12 17 0.0 0.0 0.00 0.36 0.00 98 1019.7
20260508120532 12 17 0.0 0.0 0.00 0.36 0.00 99 1019.7
20260508120145 12 17 0.0 0.0 0.00 0.36 0.00 99 1019.4
20260508115536 12 17 0.0 0.0 0.00 0.81 0.00 99 1019.5
20260508115041 11 17 0.0 0.0 0.00 0.81 0.00 99 1019.4
20260508114649 11 17 0.0 0.0 0.00 0.81 0.00 99 1019.5
20260508114023 11 17 0.0 0.0 0.00 0.81 0.00 98 1019.3
20260508113523 11 17 0.0 0.0 0.00 0.81 0.00 98 1019.1
20260508113109 11 17 0.0 0.0 0.00 0.81 0.00 98 1019.0
20260508112528 11 17 0.0 0.0 0.00 0.81 0.00 98 1019.0
20260508112028 11 17 0.0 3.2 0.00 0.81 0.00 98 1018.7
20260508111556 11 17 0.0 3.2 0.00 0.81 0.00 98 1018.9
20260508111023 11 17 0.0 3.2 0.00 0.81 0.00 98 1018.5
20260508110534 11 328 0.0 0.0 0.00 0.81 0.00 98 1018.3
20260508110154 11 328 0.0 0.0 0.00 0.81 0.00 98 1018.2
20260508105541 11 328 0.0 0.0 0.00 1.07 0.00 98 1018.2
20260508105034 11 328 0.0 0.0 0.00 1.07 0.00 98 1018.1
20260508104639 11 328 0.0 0.0 0.00 1.07 0.00 98 1017.9
20260508104042 11 328 0.0 0.0 0.00 1.07 0.00 98 1017.8
20260508103533 11 328 0.0 0.0 0.00 1.07 0.00 97 1018.0
20260508103139 11 328 0.0 0.0 0.00 1.07 0.00 97 1017.8
20260508102537 11 328 0.0 0.0 0.00 1.07 0.00 97 1017.8
20260508102038 11 328 0.0 0.0 0.00 1.07 0.00 97 1017.8
20260508101619 11 328 0.0 0.0 0.00 1.07 0.00 97 1017.7
20260508101022 11 328 0.0 0.0 0.00 1.07 0.00 97 1017.6
20260508100537 11 328 0.0 0.0 0.00 1.07 0.00 97 1017.5
20260508100142 11 328 0.0 0.0 0.00 1.07 0.00 97 1017.6
20260508095545 11 328 0.0 0.0 0.00 1.14 0.00 97 1017.5
20260508095050 11 328 0.0 3.2 0.00 1.14 0.00 97 1017.3
20260508094643 11 328 0.0 3.2 0.00 1.14 0.00 98 1017.4
20260508094024 11 328 0.0 3.2 0.00 1.14 0.00 98 1017.1
20260508093515 11 328 0.0 0.0 0.00 1.14 0.00 97 1017.2
20260508093127 11 328 0.0 0.0 0.00 1.14 0.00 97 1017.2
20260508092526 11 328 0.0 0.0 0.00 1.14 0.00 97 1017.1
20260508092036 10 328 0.0 0.0 0.00 1.14 0.00 97 1017.3
20260508091641 10 328 0.0 0.0 0.00 1.14 0.00 96 1017.1
20260508091033 10 328 0.0 0.0 0.00 1.14 0.00 96 1017.0
20260508090546 10 328 0.0 3.2 0.00 1.14 0.00 95 1017.0
20260508090139 10 328 0.0 3.2 0.00 1.14 0.00 95 1017.1
20260508085533 10 328 0.0 3.2 0.00 1.32 0.00 94 1017.1
20260508085027 10 328 0.0 3.2 0.00 1.32 0.00 94 1017.0
20260508084623 11 328 0.0 3.2 0.00 1.32 0.00 95 1016.8
20260508084043 11 328 0.0 3.2 0.00 1.32 0.00 94 1016.7
20260508083529 11 328 0.0 3.2 0.00 1.32 0.00 94 1016.6
20260508083144 10 328 0.0 3.2 0.00 1.32 0.00 93 1016.8
20260508082521 11 328 0.0 3.2 0.00 1.32 0.00 92 1016.7
20260508082028 11 328 0.0 3.2 0.00 1.32 0.00 92 1016.7
20260508081649 11 328 0.0 3.2 0.00 1.32 0.00 92 1016.9
20260508081019 11 328 1.6 3.2 0.00 1.32 0.00 93 1016.7
20260508080531 11 328 0.0 3.2 0.00 1.32 0.00 93 1016.7
20260508080112 11 328 0.0 1.6 0.00 1.32 0.00 93 1016.6
20260508075527 11 328 0.0 3.2 0.00 1.68 0.00 92 1016.5
20260508075042 11 328 0.0 3.2 0.00 1.68 0.00 91 1016.8
20260508074640 11 328 0.0 3.2 0.00 1.68 0.00 91 1016.7
20260508074042 11 328 0.0 3.2 0.00 1.68 0.00 90 1016.7
20260508073524 11 328 0.0 3.2 0.00 1.68 0.00 90 1016.9
20260508073145 11 328 0.0 3.2 0.00 1.68 0.00 90 1016.6
20260508072519 11 328 1.6 3.2 0.00 1.68 0.00 90 1016.7
20260508072032 11 328 0.0 3.2 0.00 1.68 0.00 90 1016.6
20260508071650 11 328 0.0 4.8 0.00 1.68 0.00 91 1016.6
20260508071015 11 328 1.6 4.8 0.00 1.68 0.00 91 1016.6
20260508070534 11 328 1.6 4.8 0.00 1.68 0.00 92 1016.6
20260508070154 11 328 1.6 4.8 0.00 1.68 0.00 92 1016.5
20260508065546 11 328 0.0 3.2 0.00 1.96 0.00 90 1016.7
20260508065017 11 328 0.0 3.2 0.00 1.96 0.00 90 1016.7
20260508064643 12 328 0.0 3.2 0.00 1.96 0.00 90 1016.4
20260508064027 11 328 0.0 3.2 0.00 1.96 0.00 90 1016.6
20260508063531 12 328 0.0 3.2 0.00 1.96 0.00 89 1016.5
20260508063148 12 328 0.0 1.6 0.00 1.96 0.00 88 1016.4
20260508062535 12 328 0.0 4.8 0.00 1.96 0.00 87 1016.5
20260508062036 12 328 0.0 4.8 0.00 1.96 0.00 87 1016.3
20260508061651 12 314 0.0 3.2 0.00 1.96 0.00 87 1016.5
20260508061028 12 314 0.0 3.2 0.00 1.96 0.00 87 1016.4
20260508060531 12 314 0.0 3.2 0.00 1.96 0.00 87 1016.5
20260508060210 12 314 0.0 3.2 0.00 1.96 0.00 87 1016.6
20260508055527 13 313 0.0 6.4 0.00 2.54 0.00 87 1016.5
20260508055035 13 313 1.6 9.7 0.00 2.54 0.00 87 1016.5
20260508054700 13 313 4.8 9.7 0.00 2.54 0.00 87 1016.3
20260508054031 13 306 4.8 9.7 0.00 2.54 0.00 87 1016.5
20260508053527 13 310 3.2 8.0 0.00 2.54 0.00 87 1016.6
20260508053152 13 309 1.6 4.8 0.00 2.54 0.00 87 1016.6
20260508052517 13 309 1.6 6.4 0.00 2.54 0.00 87 1016.6
20260508052026 13 309 3.2 6.4 0.00 2.54 0.00 87 1016.6
20260508051657 13 309 1.6 6.4 0.00 2.54 0.00 87 1016.5
20260508051042 13 313 1.6 3.2 0.00 2.54 0.00 87 1016.6
20260508050525 13 313 1.6 3.2 0.00 2.54 0.00 87 1016.7
20260508050203 13 313 1.6 3.2 0.00 2.54 0.00 85 1016.4
20260508045523 13 313 1.6 4.8 0.00 3.28 0.00 85 1016.5
20260508045032 13 313 1.6 6.4 0.00 3.28 0.00 85 1016.3
20260508044651 13 311 1.6 6.4 0.00 3.28 0.00 86 1016.3
20260508044023 13 312 1.6 6.4 0.00 3.28 0.00 86 1016.1
20260508043543 13 326 3.2 6.4 0.00 3.28 0.00 85 1016.2
20260508043154 14 334 1.6 4.8 0.00 3.28 0.00 85 1016.3
20260508042534 14 338 1.6 8.0 0.00 3.28 0.00 84 1016.1
20260508042034 14 338 1.6 8.0 0.00 3.28 0.00 84 1016.2
20260508041649 14 337 3.2 8.0 0.00 3.28 0.00 84 1016.1
20260508041027 14 348 3.2 6.4 0.00 3.28 0.00 83 1016.2
20260508040525 14 309 3.2 6.4 0.00 3.28 0.00 83 1016.1
20260508040208 14 323 1.6 6.4 0.00 3.28 0.00 82 1016.1
20260508035520 15 325 1.6 6.4 0.00 3.38 3.28 82 1016.0
20260508035037 15 325 3.2 8.0 0.00 3.38 3.28 82 1016.0
20260508034640 15 323 4.8 11.3 0.00 3.38 3.28 81 1015.8
20260508034046 15 303 4.8 11.3 0.00 3.38 3.28 81 1015.9
20260508033542 15 327 4.8 11.3 0.00 3.38 3.28 81 1016.1
20260508033136 15 323 3.2 9.7 0.00 3.38 3.28 81 1016.0
20260508032520 15 329 3.2 9.7 0.00 3.38 3.28 81 1016.1
20260508032021 15 316 3.2 9.7 0.00 3.38 3.28 80 1016.1
20260508031646 15 311 4.8 12.9 0.00 3.38 3.28 80 1016.0
20260508031028 16 309 6.4 12.9 0.00 3.38 3.28 78 1016.1
20260508030538 16 312 6.4 12.9 0.00 3.38 3.28 78 1016.0
20260508030128 16 309 4.8 14.5 0.00 3.38 3.28 78 1015.9
20260508025529 16 342 6.4 14.5 0.00 3.43 3.28 78 1015.7
20260508025034 16 314 6.4 14.5 0.00 3.43 3.28 77 1015.8
20260508024717 16 320 3.2 9.7 0.00 3.43 3.28 77 1015.7
20260508024038 16 313 3.2 9.7 0.00 3.43 3.28 77 1015.7
20260508023526 16 325 3.2 8.0 0.00 3.43 3.28 76 1015.8
20260508023152 16 355 1.6 8.0 0.00 3.43 3.28 76 1015.5
20260508022517 16 347 3.2 9.7 0.00 3.43 3.28 75 1015.5
20260508022028 16 344 4.8 9.7 0.00 3.43 3.28 75 1015.5
20260508021649 16 322 4.8 16.1 0.00 3.43 3.28 74 1015.4
20260508021029 17 321 6.4 16.1 0.00 3.43 3.28 74 1015.3
20260508020534 17 327 4.8 16.1 0.00 3.43 3.28 74 1015.3
20260508020125 17 321 6.4 17.7 0.00 3.43 3.28 74 1015.1
20260508015531 17 319 8.0 17.7 0.00 3.63 3.28 73 1015.0
20260508015032 17 350 4.8 17.7 0.00 3.63 3.28 73 1015.1
20260508014642 17 340 8.0 17.7 0.00 3.63 3.28 73 1014.9
20260508014021 17 339 8.0 14.5 0.00 3.63 3.28 73 1014.9
20260508013533 17 326 8.0 17.7 0.00 3.63 3.28 73 1014.7
20260508013149 17 355 9.7 17.7 0.00 3.63 3.28 73 1014.7
20260508012542 17 334 9.7 19.3 0.00 3.63 3.28 72 1014.4
20260508012027 17 337 8.0 19.3 0.00 3.63 3.28 72 1014.4